Location: Arbon
(43.0005°N, 0.7472°E)
Time: 11:57:26
(UTC+00:00)

SR - Visible Passes

Search period start: 30 November 2020 00:00
Search period end: 10 December 2020 00:00
Orbit: 579 x 876 km, 66.7° (Epoch: 29 November)

Date Brightness Start Highest point End Pass type
(mag) Time Alt. Az. Time Alt. Az. Time Alt. Az.
30 Nov ? 17:02:25 10° SSE 17:06:02 27° ESE 17:09:50 10° NE visible
30 Nov ? 18:43:55 10° WSW 18:47:54 34° NW 18:49:19 27° NNW visible
01 Dec ? 17:53:42 10° SW 17:58:01 69° WNW 18:01:21 18° NNE visible
01 Dec ? 19:39:16 10° WNW 19:40:47 12° NW 19:40:47 12° NW visible
02 Dec ? 17:04:08 10° SSW 17:08:20 55° ESE 17:12:50 10° NE visible
02 Dec ? 18:47:27 10° W 18:50:46 20° NW 18:52:43 16° N visible
03 Dec ? 17:56:37 10° WSW 18:00:40 36° NW 18:04:36 12° NNE visible
04 Dec ? 17:06:29 10° SW 17:10:47 74° WNW 17:15:28 10° NNE visible
04 Dec ? 18:51:44 10° WNW 18:53:48 13° NW 18:55:52 10° N visible
05 Dec ? 18:00:05 10° W 18:03:31 21° NW 18:07:10 10° N visible
06 Dec ? 17:09:20 10° WSW 17:13:27 39° NW 17:17:53 10° NNE visible
07 Dec ? 18:04:14 10° WNW 18:06:32 14° NW 18:08:55 10° N visible
08 Dec ? 17:12:43 10° W 17:16:16 23° NW 17:20:03 10° N visible
